Tracking 31023 objects as of 19-Jul-2025
HD Live streaming from Space Station
objects crossing your sky now

COSMOS 839 DEB

Track COSMOS 839 DEB now!
10-day predictions


NORAD ID: 10444
Int'l Code: 1976-067V
Perigee: 881.2 km
Apogee: 2,049.1 km
Inclination: 65.8 °
Period: 115.1 minutes
Semi major axis: 7836 km
RCS: 0.0139 m2 (small)
Launch date: July 8, 1976
Source: Commonwealth of Independent States (former USSR) (CIS)
Launch site: PLESETSK MISSILE AND SPACE COMPLEX (PKMTR)

Note: This is SATELLITE DEBRIS
Your satellite tracking list
Your tracking list is empty




NASA's NSSDC Master Catalog

Two Line Element Set (TLE):
1 10444U 76067V   25199.49854698 -.00000086  00000-0 -63522-4 0  9996
2 10444  65.7967  20.0728 0745223 346.8137  11.4281 12.51547290237385
Source of the keplerian elements: AFSPC